Louisville, KY

8:01 AM EST on December 09, 2016 (GMT -0500)
Bowman

Weather History for KLOU - January, 2006

Change the Weather History Date:

Sunday, January 1, 2006

  Actual Average Record
Temperature  
Mean Temperature 46 °F 35 °F  
Max Temperature 61 °F 43 °F 72 °F (1952)
Min Temperature 30 °F 27 °F -2 °F (1968)
Degree Days  
Heating Degree Days 20 30  
Month to date heating degree days 30  
Since 1 July heating degree days 1694  
Cooling Degree Days 0 0  
Month to date cooling degree days 0  
Year to date cooling degree days 0  
Moisture  
Dew Point 34 °F    
Average Humidity 64    
Maximum Humidity 89    
Minimum Humidity 36    
Precipitation  
Precipitation 0.00 in 0.14 in 2.56 in (1966)
Month to date precipitation 0.14  
Year to date precipitation 0.14  
Sea Level Pressure  
Sea Level Pressure 29.89 in    
Wind  
Wind Speed 3 mph (SSE)    
Max Wind Speed 12 mph    
Max Gust Speed -    
Visibility 9 miles    
Events      
T = Trace of Precipitation, MM = Missing Value Source: NWS Daily Summary

Daily Weather History Graph

Daily Weather History Graph

Search for Another Location

Airport or City:

Trip Planner

Search our weather history database for the weather conditions in past years. The results will help you decide how hot, cold, wet, or windy it might be!

Date:

Astronomy

Jan. 01, 2006 Rise Set
Actual Time 7:59 AM EST 5:33 PM EST
Civil Twilight 7:29 AM EST 6:02 PM EST
Nautical Twilight 6:56 AM EST 6:35 PM EST
Astronomical Twilight 6:24 AM EST 7:07 PM EST
Moon 9:42 AM EST (1/1) 7:23 PM EST (1/1)
Length of Visible Light 10h 32m
Length of Day
9h 33m
Waxing Crescent, 4% of the Moon is Illuminated
Jan 1
Waxing Crescent
Jan 6
First Quarter
Jan 14
Full
Jan 22
Last Quarter
Jan 29
New

Hourly Weather History & Observations

Time (EST) Temp. Windchill Dew Point Humidity Pressure Visibility Wind Dir Wind Speed Gust Speed Precip Events Conditions
12:53 AM 32.0 °F - 28.0 °F 85% 29.97 in 6.0 mi Calm Calm - N/A   Clear
1:53 AM 32.0 °F - 28.0 °F 85% 29.97 in 6.0 mi Calm Calm - N/A   Clear
2:53 AM 30.9 °F - 28.0 °F 89% 29.99 in 6.0 mi Calm Calm - N/A   Clear
3:53 AM 30.9 °F - 28.0 °F 89% 30.00 in 6.0 mi Calm Calm - N/A   Clear
4:53 AM 32.0 °F - 28.9 °F 88% 29.97 in 6.0 mi Calm Calm - N/A   Clear
5:53 AM 30.9 °F - 28.0 °F 89% 29.99 in 6.0 mi Calm Calm - N/A   Clear
6:53 AM 30.9 °F - 28.0 °F 89% 29.98 in 6.0 mi Calm Calm - N/A   Clear
7:53 AM 32.0 °F - 28.0 °F 85% 29.99 in 9.0 mi Calm Calm - N/A   Clear
8:53 AM 33.1 °F - 28.9 °F 85% 29.98 in 8.0 mi Calm Calm - N/A   Clear
9:53 AM 39.0 °F - 32.0 °F 76% 29.99 in 10.0 mi Calm Calm - N/A   Clear
10:53 AM 43.0 °F 39.5 °F 32.0 °F 65% 29.99 in 10.0 mi SE 5.8 mph - N/A   Clear
11:53 AM 48.9 °F - 32.0 °F 52% 29.95 in 10.0 mi SSE 4.6 mph - N/A   Clear
12:53 PM 53.1 °F - 30.9 °F 43% 29.91 in 10.0 mi South 8.1 mph - N/A   Mostly Cloudy
1:53 PM 55.9 °F - 30.0 °F 37% 29.87 in 10.0 mi SE 8.1 mph - N/A   Overcast
2:15 PM 55.4 °F - 30.2 °F 38% 29.86 in 10.0 mi SE 8.1 mph - N/A   Overcast
2:25 PM 57.2 °F - 30.2 °F 36% 29.85 in 10.0 mi SSE 6.9 mph - N/A   Overcast
2:53 PM 57.9 °F - 30.9 °F 36% 29.85 in 10.0 mi South 11.5 mph - N/A   Mostly Cloudy
3:53 PM 61.0 °F - 39.0 °F 44% 29.83 in 10.0 mi South 11.5 mph - N/A   Scattered Clouds
4:53 PM 60.1 °F - 41.0 °F 49% 29.84 in 10.0 mi SSE 8.1 mph - N/A   Overcast
5:53 PM 59.0 °F - 42.1 °F 53% 29.83 in 10.0 mi Variable 4.6 mph - N/A   Overcast
6:53 PM 57.9 °F - 39.9 °F 51% 29.81 in 10.0 mi SE 4.6 mph - N/A   Overcast
7:53 PM 57.9 °F - 39.9 °F 51% 29.81 in 10.0 mi Variable 4.6 mph - N/A   Mostly Cloudy
8:53 PM 57.9 °F - 42.1 °F 56% 29.79 in 10.0 mi SSE 10.4 mph - N/A   Overcast
9:53 PM 57.0 °F - 44.1 °F 62% 29.78 in 10.0 mi SSE 8.1 mph - N/A   Overcast
10:12 PM 57.2 °F - 44.6 °F 63% 29.78 in 10.0 mi SSE 8.1 mph - N/A   Overcast
10:53 PM 57.0 °F - 46.9 °F 69% 29.78 in 10.0 mi SE 9.2 mph - N/A   Overcast
11:53 PM 57.0 °F - 48.9 °F 74% 29.77 in 10.0 mi Variable 3.5 mph - N/A   Overcast